Tracking 17560 objects as of 11-February-2016
HD Live streaming from Space Station
objects crossing your sky now

MOZ.5/SAFIR/RUBIN 5/SL-8

Track MOZ.5/SAFIR/RUBIN 5/SL-8 now!
10-day predictions
MOZ.5/SAFIR/RUBIN 5/SL-8 is classified as:


NORAD ID: 28898
Int'l Code: 2005-043G
Perigee: 687.0 km
Apogee: 713.3 km
Inclination: 97.9 °
Period: 98.6 minutes
Semi major axis: 7071 km
RCS: 6.834 m2 (large)
Launch date: October 27, 2005
Source: Germany (GER)
Launch site: PLESETSK MISSILE AND SPACE COMPLEX (PKMTR)
Your satellite tracking list
Your tracking list is empty





NASA's NSSDC Master Catalog

Two Line Element Set (TLE):
1 28898U 05043G   16042.08829749  .00000227  00000-0  56287-4 0  9990
2 28898  97.8629 209.1851 0018647 297.1490  62.7809 14.6004991654823
Source of the keplerian elements: AFSPC

N2YO: 830